Location: Trebic
(49.2170°N, 15.8830°E)
Time: 22:58:58
(UTC+01:00)

Transit 4A - Pass Details

Date: 07 November 2020
Orbit: 862 x 982 km, 66.8° (Epoch: 30 November)

Event Time Altitude Azimuth Distance (km) Brightness Sun altitude
Rises 21:30:21 0° 323° (NW) 3,696 11.7 -48.1°
Reaches altitude 10° 21:32:57 10° 321° (NW) 2,741 10.8 -48.4°
Enters shadow 21:33:42 14° 320° (NW) 2,468 10.6 -48.5°
